Theta_e
294 294 294 295 295 293 294 295 296 299 304 306 304 307 304 304 305 305 305 305 305 306 306 307 308 309 309 309 311 312 312 313 313 311 312 312 313 313 314 317 315 317 317 320
293 293 294 293 294 294 294 294 294 295 302 302 302 303 303 303 305 304 304 304 305 305 305 306 306 306 307 306 309 310 312 312 313 312 311 308 310 313 313 314 314 318 320 320
292 291 292 293 293 292 293 294 295 295 298 299 298 299 300 301 302 303 302 303 303 304 304 305 305 306 307 306 306 309 309 310 309 312 311 311 312 311 311 312 315 315 316 317
292 293 292 292 292 292 292 293 294 294 295 295 295 295 296 299 299 297 300 303 298 299 303 303 303 304 304 306 306 307 307 309 308 309 309 310 312 312 311 312 312 314 315 315
293 292 291 292 292 292 293 293 293 293 293 293 293 293 293 294 295 294 295 298 295 295 297 297 300 299 301 304 303 306 306 307 307 308 308 308 309 309 309 310 311 311 311 312
292 292 292 292 292 292 292 292 292 292 292 293 293 292 292 292 292 292 293 294 293 294 294 293 294 295 295 296 297 299 304 305 305 306 305 307 309 309 308 309 309 309 310 310
292 292 292 292 291 292 292 292 292 292 293 293 292 292 292 292 292 291 291 292 292 292 292 292 292 292 293 294 296 297 300 303 305 306 304 306 305 306 306 307 307 307 308 308
291 291 292 291 291 292 292 292 292 292 293 292 292 291 291 291 291 291 291 291 291 292 292 293 292 293 293 294 295 296 298 299 303 304 305 304 304 298 300 302 305 299 300 301
291 291 290 291 291 290 291 292 292 291 292 292 291 291 291 291 291 291 291 291 291 291 293 292 292 291 292 292 294 297 298 299 301 302 303 303 303 294 295 298 304 295 296 297
291 291 291 291 291 290 291 291 291 291 292 291 291 291 291 290 291 291 290 291 291 291 292 292 291 291 292 292 292 292 295 298 299 301 301 300 290 291 293 303 298 292 293 295
291 291 290 290 290 291 290 291 291 291 291 291 291 290 290 290 290 290 290 290 291 292 292 291 292 292 292 293 293 292 294 294 296 299 302 300 287 291 292 289 288 290 290 291
290 290 289 290 290 291 290 291 290 291 290 291 290 289 289 289 289 290 290 290 290 291 291 291 291 291 291 291 293 289 292 286 289 288 289 288 286 286 285 286 286 287 288 289
290 290 289 290 290 290 290 289 289 290 289 289 289 289 287 288 288 289 290 290 290 290 290 291 292 291 291 291 288 290 285 283 286 286 286 284 285 284 283 284 285 286 287 288
289 290 290 289 289 289 289 288 288 289 289 289 288 287 289 288 288 288 289 290 290 290 290 291 291 291 291 287 285 284 281 282 282 285 284 283 285 282 281 283 284 284 285 287
289 289 289 290 289 288 289 289 289 289 289 289 288 288 287 287 288 289 288 289 289 290 290 291 290 288 287 285 284 280 280 280 282 282 281 281 282 281 280 281 282 282 282 283
288 288 288 288 287 288 288 289 287 288 287 288 289 288 287 286 287 287 286 287 287 287 287 286 285 283 285 285 282 279 278 279 279 280 279 281 280 281 280 280 281 282 282 282
287 286 286 286 287 287 289 289 288 288 288 288 288 288 287 286 287 288 286 284 284 285 285 284 283 281 281 281 279 278 278 278 278 278 279 279 279 279 279 280 281 281 282 282
285 286 287 286 286 287 288 287 287 287 288 287 287 287 287 286 287 288 285 284 283 282 283 282 282 280 280 278 277 277 277 277 277 277 278 278 278 278 279 279 280 280 280 281
286 286 286 286 286 287 287 287 287 286 287 287 286 285 286 285 286 287 286 285 284 282 282 281 281 280 277 276 276 277 276 276 276 276 277 277 277 278 278 278 278 278 278 279
286 286 287 287 284 286 286 286 286 286 285 285 285 284 285 284 286 288 287 285 285 284 282 281 280 278 277 275 275 275 275 275 276 276 277 277 277 277 277 277 277 277 277 278
286 286 286 284 284 284 284 284 284 283 284 283 283 283 283 284 286 287 285 285 285 284 283 282 280 278 276 275 275 275 275 275 275 275 276 276 276 276 276 276 276 276 276 277
284 284 284 283 283 283 283 282 282 283 282 282 282 281 281 283 283 286 285 285 285 283 281 281 279 277 276 275 275 275 275 274 275 275 275 275 275 275 275 276 275 275 276 276
284 283 283 283 281 282 282 281 282 282 281 281 280 280 281 282 282 284 284 284 283 281 281 279 277 276 275 275 275 274 274 274 274 274 274 275 274 274 274 274 274 275 275 275
283 282 282 283 283 282 282 281 281 280 279 279 278 280 281 280 281 281 282 280 281 280 279 278 277 276 275 274 274 274 274 274 273 273 273 273 273 273 274 274 274 274 274 275
282 282 282 282 280 280 279 278 277 278 277 277 278 280 279 279 280 279 280 279 279 278 278 277 276 275 274 274 273 273 273 273 272 272 272 273 273 273 274 273 273 274 275 275
281 280 281 280 281 280 278 277 277 276 276 277 277 279 279 277 277 278 277 277 277 277 276 276 274 274 273 272 272 272 272 272 272 272 272 272 272 273 273 273 273 275 275 275
280 280 280 279 279 278 278 276 276 275 277 279 278 277 275 275 276 275 276 276 276 275 275 274 273 273 272 271 271 271 271 271 271 272 272 272 272 273 273 273 273 274 274 275
Wind_Speed
19 20 21 19 21 24 20 8 5 7 8 11 13 14 19 8 21 18 18 13 21 22 20 18 20 19 14 6 7 8 18 7 12 12 8 14 18 15 19 6 10 11 11 11
18 17 17 18 17 19 17 14 14 11 10 8 13 21 22 18 15 17 14 15 17 19 21 20 22 24 22 19 11 8 12 8 11 16 9 4 7 19 19 20 14 15 5 3
17 16 16 16 20 18 14 9 5 6 7 14 7 9 14 20 19 16 21 23 24 22 23 21 18 19 8 6 14 7 3 16 18 16 15 8 6 16 21 22 16 16 19 14
17 18 19 17 16 17 10 4 4 2 6 8 12 10 8 12 11 15 15 7 14 13 18 23 25 24 23 18 20 14 4 12 18 23 23 23 17 16 11 18 21 16 14 17
17 17 20 19 18 16 7 7 6 7 16 14 13 12 11 15 7 7 15 9 15 10 7 9 8 11 5 4 11 14 17 11 14 21 23 23 25 24 24 25 22 22 23 25
16 18 19 21 19 16 7 6 7 6 9 12 9 6 8 11 14 8 10 13 16 18 16 13 14 15 15 13 5 7 10 13 16 21 21 20 20 29 27 26 25 23 25 23
17 17 19 22 18 15 15 11 8 7 9 9 7 10 12 13 12 14 19 18 16 21 17 22 20 21 22 20 17 16 8 12 10 14 18 24 19 16 13 18 21 16 18 13
20 20 20 22 19 17 18 14 12 7 8 14 9 10 9 12 14 13 15 15 13 15 13 10 10 12 18 20 20 20 18 13 5 9 13 15 15 7 8 7 0 14 14 15
24 22 21 21 20 17 16 17 18 13 4 5 10 8 10 9 10 11 8 9 12 9 8 8 9 10 14 11 21 20 21 19 14 9 8 8 5 12 13 6 7 17 18 16
25 23 20 21 20 16 15 16 16 15 6 12 10 5 7 10 8 7 13 6 7 3 6 9 10 12 15 14 15 15 13 13 18 16 15 15 13 19 15 7 5 25 22 21
24 22 22 21 19 14 10 12 11 14 7 11 10 9 8 11 11 9 15 10 5 7 5 4 4 4 4 6 8 8 6 6 8 11 12 15 26 6 7 13 24 24 22 22
25 21 17 16 14 8 7 11 10 18 10 3 8 15 15 15 14 12 7 10 12 4 4 2 3 7 8 6 3 8 2 5 5 5 4 9 13 11 18 20 21 23 25 24
26 20 13 11 13 13 4 3 3 3 4 11 6 1 2 2 7 7 8 11 8 4 3 5 3 4 4 5 4 2 6 16 4 6 10 18 16 23 23 23 22 23 23 22
20 20 13 9 9 7 2 1 4 6 3 4 1 4 4 1 7 10 11 19 18 12 8 4 3 3 6 4 5 5 7 8 10 5 14 20 19 24 26 23 21 21 19 19
20 19 15 12 10 6 5 7 8 7 3 4 8 4 1 8 7 5 8 12 12 9 5 4 2 5 5 4 5 6 11 5 5 3 16 13 14 20 24 22 22 22 22 22
21 18 13 10 7 5 4 2 0 4 3 3 3 1 1 7 4 6 9 7 5 4 6 5 5 7 6 3 3 10 13 12 10 8 21 6 17 13 23 24 23 23 23 23
18 12 9 7 4 1 0 2 3 4 3 3 4 2 2 8 3 2 3 11 8 6 4 4 4 8 6 3 3 15 15 14 10 15 16 11 17 16 20 21 21 22 23 25
12 8 6 7 7 6 5 6 8 4 1 2 2 3 4 9 5 3 2 3 4 8 5 4 4 5 6 4 11 13 16 14 10 17 13 12 13 16 20 20 21 24 26 26
7 5 4 5 5 4 5 9 14 8 3 2 3 5 4 11 5 4 3 2 3 3 3 3 3 3 5 8 13 14 15 13 16 15 13 14 17 18 19 20 22 23 23 23
4 5 3 3 7 5 3 5 2 4 6 6 4 10 4 9 7 3 3 3 2 2 3 4 3 3 2 12 11 11 13 14 15 16 18 18 17 18 18 18 17 17 18 18
4 3 2 7 5 3 3 4 5 7 3 7 7 8 10 5 5 3 5 2 0 1 3 2 2 2 9 13 12 12 12 12 11 11 11 12 13 14 15 16 16 16 16 17
5 3 4 6 7 6 4 3 3 4 3 9 9 13 8 7 5 4 6 2 1 4 2 2 2 3 10 13 12 12 11 12 11 10 11 12 13 13 13 13 13 14 14 14
4 4 3 6 7 7 5 7 2 5 9 6 14 12 5 5 4 3 3 2 4 1 2 2 3 6 10 12 12 11 11 12 11 11 10 10 11 10 11 11 11 12 12 13
3 5 5 4 3 3 2 5 6 9 11 15 15 8 3 4 3 3 3 3 2 2 2 2 3 8 10 11 11 11 12 13 12 12 12 12 13 12 11 12 13 14 14 14
4 4 3 2 2 1 6 6 8 7 9 10 8 5 3 3 2 3 2 2 3 4 3 3 9 9 10 11 12 11 12 13 13 12 13 14 14 13 12 12 13 13 13 13
3 4 2 1 1 5 6 6 7 7 8 5 2 2 1 4 3 3 4 2 3 2 4 8 10 10 10 11 12 10 11 11 11 11 11 12 13 13 13 12 13 12 12 13
3 2 3 3 1 3 8 8 8 10 4 2 2 3 3 2 2 3 3 2 3 8 8 9 10 9 11 12 12 11 10 11 11 11 11 11 11 11 11 12 14 12 12 10
Wind_Direction
328 327 326 327 337 345 350 328 270 292 211 216 235 240 250 264 266 253 249 265 262 266 267 267 243 246 236 167 173 187 210 258 237 209 229 223 211 215 214 220 222 225 254 264
338 337 327 337 335 342 346 320 287 278 224 248 248 256 253 263 274 260 258 253 248 255 255 258 254 254 248 252 224 224 186 223 245 249 192 213 237 233 234 237 252 241 231 192
337 341 342 340 335 337 347 312 308 294 259 267 357 353 307 297 263 262 273 276 276 271 260 251 256 258 244 264 238 263 256 247 244 243 249 254 231 225 229 232 238 246 239 256
343 349 343 339 328 332 343 288 309 13 302 308 313 299 315 311 342 351 330 278 24 353 273 260 253 254 253 213 228 247 240 248 245 259 266 266 243 257 244 232 244 252 262 252
342 331 327 332 325 326 302 292 301 306 296 287 295 300 277 287 304 344 321 326 347 345 322 341 344 357 5 316 343 274 240 253 258 257 256 260 265 266 253 256 249 250 255 260
329 329 327 329 324 317 290 274 276 271 279 282 282 321 334 318 316 307 296 298 306 309 314 310 298 292 284 274 298 310 306 258 255 258 254 259 250 246 255 261 260 260 260 268
326 326 326 325 324 312 282 263 255 264 273 278 278 307 302 303 306 300 300 295 299 295 311 307 291 266 255 256 260 229 271 292 268 261 260 243 251 258 265 255 256 269 274 305
322 322 318 322 323 314 289 265 226 245 261 275 285 280 297 295 295 289 299 301 318 312 296 292 291 288 256 252 242 245 231 247 265 252 255 270 266 28 13 7 67 31 1 345
320 318 319 317 319 316 296 260 249 240 244 259 269 296 302 296 304 302 323 311 307 298 272 265 255 260 288 268 244 232 228 224 235 252 255 268 285 6 341 311 239 9 355 341
318 315 311 313 315 308 297 268 249 228 266 270 267 263 324 308 282 286 299 341 308 267 264 265 268 271 268 259 267 263 244 225 232 234 245 246 8 328 309 229 351 341 338 330
334 320 312 311 317 316 280 279 235 219 242 251 279 275 271 279 266 292 309 311 211 264 256 279 314 303 9 301 25 342 346 330 269 254 239 230 6 28 2 335 326 330 331 323
342 336 320 319 332 317 278 281 278 230 250 256 266 287 274 261 266 283 277 279 302 314 308 299 318 307 309 309 293 24 65 359 309 22 35 344 35 16 350 343 331 332 328 325
335 341 332 324 334 354 113 96 166 220 289 294 265 252 305 302 281 256 259 274 263 250 264 309 299 284 323 303 54 47 31 13 16 319 17 340 28 8 358 346 339 337 335 329
334 333 339 325 320 318 339 134 249 254 297 287 122 272 312 226 308 292 263 268 273 268 285 274 274 290 13 55 65 61 355 327 323 292 8 345 4 356 351 348 349 348 346 347
336 328 329 317 298 347 292 280 277 243 238 320 300 293 218 348 347 339 320 284 275 269 229 232 349 41 24 78 93 44 355 353 354 312 335 313 318 342 356 357 358 1 7 9
331 324 328 315 314 295 309 261 228 199 237 270 294 26 131 356 345 16 9 0 355 10 37 45 65 19 17 65 84 22 358 345 5 326 327 348 354 353 11 9 12 20 31 32
339 343 348 6 29 4 65 12 310 287 290 286 302 294 13 347 306 326 15 39 44 42 54 61 51 24 49 50 48 352 351 346 351 2 5 355 1 352 6 17 27 38 50 48
350 6 43 45 36 30 11 332 299 261 319 359 351 321 316 4 319 314 70 74 50 34 68 61 47 41 51 64 355 350 352 349 356 1 5 360 356 9 11 17 27 32 36 40
4 21 30 22 25 26 37 16 54 85 59 49 34 350 342 347 319 298 106 80 77 67 71 49 68 46 44 344 345 350 357 356 341 352 1 5 6 9 11 13 20 23 19 29
357 16 11 13 345 352 14 22 15 32 29 36 31 353 333 325 327 289 132 63 63 92 70 96 74 86 74 2 352 350 352 353 353 357 359 358 3 3 4 8 11 16 15 20
9 25 18 347 0 33 39 42 31 359 56 11 350 353 332 316 313 316 27 66 54 114 80 65 100 83 9 355 356 354 356 357 358 355 353 356 356 355 357 0 3 6 7 12
21 19 16 12 25 26 54 25 12 18 13 350 345 334 321 306 322 306 15 51 11 71 51 85 89 51 357 354 352 354 354 355 358 1 359 356 356 355 355 356 357 1 1 3
14 18 40 17 2 38 32 354 356 333 348 346 335 329 319 317 355 304 342 42 58 100 48 63 52 8 353 350 349 350 352 354 357 358 0 359 358 359 359 357 357 358 1 1
44 34 32 28 32 27 335 320 307 304 300 315 319 297 342 332 336 339 39 33 344 70 69 72 32 6 345 346 347 349 350 350 352 352 352 355 356 357 359 1 1 2 0 3
62 44 61 67 33 339 322 315 311 313 305 311 309 281 323 359 26 17 20 49 61 29 43 18 358 340 341 341 343 342 345 344 347 347 350 353 352 357 360 1 360 1 2 5
64 62 106 71 287 349 341 339 327 332 321 307 273 299 46 45 359 48 30 32 47 45 356 342 334 332 335 334 339 333 337 339 341 340 343 345 348 353 355 357 356 1 2 8
81 96 78 70 40 329 341 335 327 331 318 357 334 41 28 302 53 53 15 28 1 335 327 328 325 321 321 329 337 337 334 337 339 341 343 343 347 356 354 355 358 8 3 10